[[{"header":{"parameterUnit":"m.s-1","parameterCategory":1,"la1":30.2991,"la2":30.254,"lo1":-89.0895,"lo2":-89.0444,"dy":0.0017,"dx":0.0017,"nx":28,"ny":28,"refTime":"2025-09-08T03:00:00:Z","depth":0,"parameterNumber":2,"parameterNumberName":"U-component_of_WINDS"},"data":[0,0,0,0,0,0,0,0,0,0,0,0,0,0,0,0,0,0,0,0,0,0,0,0,0,0,0,0,0,0,0,0,0,0,0,0,0,0,0,0,0,0,0,0,0,0,0,0,0,0,0,0,0,0,0,0,0,0,-4.4835,-4.4835,0,-4.4822,-4.4822,-4.4821,-4.4683,-4.4679,-4.4676,-4.4672,-4.4658,-4.4661,-4.4664,0,0,0,0,0,0,0,0,0,0,0,0,0,-4.4743,-4.4746,-4.4836,-4.4835,-4.4835,-4.4822,-4.4822,-4.4821,-4.4683,-4.4679,-4.4675,-4.4671,-4.4657,-4.4661,-4.4664,0,0,0,0,0,0,0,0,0,0,0,0,0,-4.4762,-4.4746,-4.4836,-4.4765,-4.4758,-4.4822,-4.4822,-4.4821,-4.4684,-4.4679,-4.4674,-4.4669,-4.4656,-4.466,-4.4665,-4.4795,0,0,-4.4678,-4.468,0,0,0,0,0,0,0,0,-4.4761,-4.4765,-4.4775,-4.477,-4.4762,-4.4748,-4.4784,-4.4813,-4.4685,-4.4712,-4.4672,-4.4666,-4.4693,-4.4694,-4.4702,-4.4795,-4.4794,-4.4678,-4.4681,-4.4683,-4.4684,0,0,0,0,0,0,0,-4.476,-4.4765,-4.483,-4.4775,-4.4768,-4.4734,-4.4731,-4.4789,-4.4732,-4.4709,-4.4699,-4.47,-4.4688,-4.4699,-4.4701,-4.4794,-4.4678,-4.4682,-4.4685,-4.4686,-4.4995,-4.5,0,0,0,0,0,0,-4.4768,-4.4765,-4.483,-4.483,-4.4749,-4.474,-4.4736,-4.4758,-4.4731,-4.4721,-4.4704,-4.4693,-4.4694,-4.4696,-4.47,-4.4852,-4.4683,-4.4687,-4.4689,-4.499,-4.4996,-4.5002,0,0,0,0,0,0,-4.4767,-4.4776,-4.4831,-4.4795,-4.4799,-4.4747,-4.4773,-4.4761,-4.4771,-4.4727,-4.4716,-4.4725,-4.469,-4.4694,-4.4773,-4.485,-4.4689,-4.4692,-4.4983,-4.4992,-4.4999,-4.5158,0,0,0,0,0,0,-4.4765,-4.4776,-4.4824,-4.4797,-4.4802,-4.4904,-4.4777,-4.4764,-4.4779,-4.4764,-4.4744,-4.4735,-4.4686,-4.4768,-4.4778,-4.4853,-4.4696,-4.4976,-4.4987,-4.4997,-4.5146,-4.5171,-4.5193,0,0,0,0,0,-4.4762,-4.4869,-4.4828,-4.4836,-4.4861,-4.4909,-4.4912,-4.4853,-4.4786,-4.4834,-4.4806,-4.4736,-4.484,-4.4777,-4.4787,-4.4865,-4.4971,-4.4984,-4.4996,-4.5135,-4.5166,-4.5192,0,0,0,0,0,0,-4.4907,-4.4864,-4.4818,-4.4919,-4.4919,-4.4886,-4.4945,-4.4887,-4.4906,-4.4892,-4.4818,-4.4815,-4.4906,-4.4893,-4.4823,-4.4991,-4.4893,-4.4909,-4.4996,-4.5025,-4.5048,-4.5049,-4.4699,0,0,0,0,0,-4.495,-4.4993,-4.4953,-4.5047,-4.5049,-4.4998,-4.5016,-4.4971,-4.4968,-4.4967,-4.4944,-4.4944,-4.4977,-4.5,-4.5027,-4.5144,-4.5138,-4.5202,-4.5226,-4.5245,-4.5259,-4.5321,-4.535,-4.5044,-4.5044,-4.5044,0,0,-4.5041,-4.5023,-4.5054,-4.5075,-4.507,-4.5116,-4.4998,-4.5051,-4.5085,-4.4975,-4.5049,-4.5033,-4.5028,-4.5127,-4.5169,-4.5119,-4.5343,-4.5261,-4.5277,-4.528,-4.5338,-4.5367,-4.5392,-4.5053,-4.5051,-4.505,0,0,-4.523,-4.522,-4.5298,-4.5295,-4.5289,-4.5254,-4.5273,-4.525,-4.5235,-4.5308,-4.5227,-4.5266,-4.5324,-4.5324,-4.5332,-4.5524,-4.5461,-4.5535,-4.5657,-4.5719,-4.5743,-4.5764,-4.5834,-4.586,-4.5549,-4.555,-4.555,0,-4.5343,-4.5409,-4.5345,-4.5404,-4.5416,-4.532,-4.5398,-4.5399,-4.5402,-4.5414,-4.5357,-4.5429,-4.5419,-4.5517,-4.5565,-4.5574,-4.5594,-4.5537,-4.5745,-4.5765,-4.5784,-4.585,-4.5876,-4.5559,-4.5558,-4.5557,-4.5556,0,-4.5549,-4.5597,-4.566,-4.5667,-4.5686,-4.5755,-4.5702,-4.5729,-4.5684,-4.5656,-4.5733,-4.5717,-4.5741,-4.5761,-4.5716,-4.5854,-4.5823,-4.5757,-4.5658,-4.5823,-4.5884,-4.5908,-4.5572,-4.5569,-4.5566,-4.5564,0,0,-4.5827,-4.5799,-4.5823,-4.5826,-4.5813,-4.5849,-4.5914,-4.5938,-4.5964,-4.597,-4.6023,-4.6076,-4.6015,-4.6024,-4.5979,-4.6033,-4.6188,-4.596,-4.5959,-4.6004,-4.6341,-4.6391,-4.6422,-4.6146,-4.6151,-4.6154,-4.6342,0,-4.6009,-4.6119,-4.6064,-4.6181,-4.6225,-4.6135,-4.6192,-4.6191,-4.6167,-4.6201,-4.6175,-4.6214,-4.613,-4.6135,-4.6185,-4.6159,-4.6255,-4.6145,-4.6196,-4.6199,-4.6201,-4.6453,-4.6506,-4.6683,-4.6365,-4.6369,-4.6372,0,-4.6236,-4.6253,-4.6375,-4.6356,-4.6372,-4.6425,-4.6443,-4.6477,-4.6474,-4.6453,-4.6466,-4.6408,-4.6472,-4.6374,-4.6461,-4.6387,-4.6405,-4.6396,-4.6402,-4.6404,-4.6296,-4.6463,-4.6738,-4.6765,-4.6408,-4.6405,-4.6403,0,-4.6428,-4.6481,-4.6561,-4.6566,-4.6546,-4.6585,-4.6579,-4.6571,-4.659,-4.6606,-4.6618,-4.6642,-4.6655,-4.6675,-4.6627,-4.6559,-4.6722,-4.6619,-4.6707,-4.6709,-4.6745,-4.6743,-4.7027,-4.6756,-4.6756,-4.6755,-4.6755,0,-4.6638,-4.6716,-4.6647,-4.6697,-4.6782,-4.672,-4.6806,-4.679,-4.6785,-4.683,-4.6754,-4.6798,-4.673,-4.6769,-4.6731,-4.681,-4.6816,-4.6802,-4.6791,-4.6809,-4.6811,-4.682,-4.6807,-4.6762,-4.6761,-4.6759,-4.6758,0,-4.6866,-4.6823,-4.6905,-4.688,-4.6876,-4.694,-4.6919,-4.6964,-4.6936,-4.6994,-4.7004,-4.696,-4.7001,-4.6955,-4.6992,-4.6967,-4.7074,-4.7045,-4.7076,-4.7067,-4.7158,-4.7151,-4.7458,-4.7496,-4.7201,-4.7204,-4.7206,0,-4.7002,-4.7061,-4.7043,-4.7068,-4.7067,-4.7108,-4.7127,-4.7068,-4.7091,-4.7095,-4.714,-4.7175,-4.7199,-4.7269,-4.7241,-4.727,-4.7241,-4.7347,-4.7244,-4.7261,-4.7243,-4.7241,-4.7247,-4.7367,-4.7371,-4.7374,-4.7376,0,-4.725,-4.7227,-4.7257,-4.7282,-4.7307,-4.7323,-4.7333,-4.7358,-4.7298,-4.7328,-4.7369,-4.7389,-4.7427,-4.7463,-4.7484,-4.7478,-4.7418,-4.7409,-4.7431,-4.745,-4.7466,-4.746,-4.7133,-4.7402,-4.7399,-4.7397,-4.7396,-4.7395,-4.7437,-4.7485,-4.7481,-4.7518,-4.752,-4.7533,-4.7574,-4.7553,-4.7586,-4.7613,-4.7577,-4.7629,-4.7627,-4.7649,-4.765,-4.7691,-4.7645,-4.7677,-4.7685,-4.7694,-4.7708,-4.746,-4.7694,-4.7693,-4.7692,-4.7692,-4.7691,0,-4.7681,-4.7675,-4.771,-4.7727,-4.7758,-4.7699,-4.7708,-4.7737,-4.7784,-4.7788,-4.7814,-4.7863,-4.7898,-4.7874,-4.7904,-4.7941,-4.7915,-4.7951,-4.7948,-4.7948,-4.7746,-4.7725,-4.7972,-4.7972,-4.7972,-4.7972,-4.7972,-4.7972,-4.7812,-4.7891,-4.7868,-4.7949,-4.7941,-4.7992,-4.8003,-4.8014,-4.8017,-4.8075,-4.8104,-4.8088,-4.8081,-4.8111,-4.8141,-4.8133,-4.8148,-4.8195,-4.8178,-4.799,-4.7962,-4.7936,-4.7915,-4.8199,-4.8199,-4.8376,-4.8377,-4.8378]},{"header":{"parameterUnit":"m.s-1","parameterCategory":1,"la1":30.2991,"la2":30.254,"lo1":-89.0895,"lo2":-89.0444,"dy":0.0017,"dx":0.0017,"nx":28,"ny":28,"refTime":"2025-09-08T03:00:00:Z","depth":0,"parameterNumber":3,"parameterNumberName":"V-component_of_WINDS"},"data":[0,0,0,0,0,0,0,0,0,0,0,0,0,0,0,0,0,0,0,0,0,0,0,0,0,0,0,0,0,0,0,0,0,0,0,0,0,0,0,0,0,0,0,0,0,0,0,0,0,0,0,0,0,0,0,0,0,0,0.7046,0.7046,0,0.7069,0.7069,0.7069,0.7141,0.7142,0.7144,0.7145,0.7163,0.7162,0.7161,0,0,0,0,0,0,0,0,0,0,0,0,0,0.706,0.706,0.7046,0.7046,0.7047,0.7069,0.7069,0.7069,0.714,0.7142,0.7144,0.7146,0.7164,0.7163,0.7161,0,0,0,0,0,0,0,0,0,0,0,0,0,0.7065,0.7059,0.7046,0.7085,0.7089,0.7069,0.7069,0.707,0.714,0.7142,0.7145,0.7147,0.7164,0.7163,0.7161,0.7104,0,0,0.7157,0.7156,0,0,0,0,0,0,0,0,0.7065,0.7065,0.7079,0.7082,0.7086,0.7105,0.7081,0.7081,0.7139,0.712,0.7145,0.7148,0.7141,0.7142,0.7141,0.7105,0.7106,0.7156,0.7155,0.7155,0.7154,0,0,0,0,0,0,0,0.7065,0.7064,0.7055,0.7079,0.7083,0.71,0.7103,0.7081,0.7117,0.7122,0.7127,0.7129,0.7144,0.7142,0.7142,0.7106,0.7156,0.7155,0.7154,0.7154,0.7024,0.7022,0,0,0,0,0,0,0.7059,0.7064,0.7054,0.7056,0.7082,0.7098,0.7102,0.7096,0.7118,0.7123,0.7127,0.7133,0.7144,0.7143,0.7143,0.7076,0.7155,0.7153,0.7153,0.7027,0.7023,0.7021,0,0,0,0,0,0,0.7059,0.7058,0.7053,0.7061,0.7062,0.7095,0.7088,0.7095,0.7094,0.7122,0.7128,0.7119,0.7145,0.7145,0.7113,0.7078,0.7153,0.7151,0.703,0.7026,0.7022,0.6943,0,0,0,0,0,0,0.706,0.7057,0.7037,0.706,0.7061,0.7024,0.7086,0.7094,0.7091,0.7099,0.7115,0.712,0.7147,0.7115,0.7112,0.7077,0.715,0.7033,0.7028,0.7023,0.6949,0.6937,0.6927,0,0,0,0,0,0.706,0.7012,0.7035,0.7034,0.7036,0.7022,0.7023,0.7056,0.7088,0.7067,0.7085,0.712,0.7083,0.7111,0.7108,0.7072,0.7035,0.7029,0.7024,0.6954,0.694,0.6927,0,0,0,0,0,0,0.6981,0.7016,0.7042,0.7001,0.7008,0.7034,0.7008,0.704,0.7036,0.7043,0.7083,0.7086,0.7049,0.7058,0.7089,0.7018,0.7065,0.7058,0.7013,0.7,0.6989,0.6986,0.7149,0,0,0,0,0,0.696,0.6947,0.6978,0.6939,0.6942,0.6974,0.6969,0.6995,0.7003,0.7006,0.7022,0.7028,0.7018,0.701,0.7002,0.6952,0.6956,0.6926,0.6915,0.6906,0.6899,0.6872,0.6859,0.7002,0.7002,0.7002,0,0,0.6914,0.6932,0.6921,0.6924,0.6932,0.6917,0.6976,0.6957,0.6946,0.7003,0.6974,0.6986,0.6995,0.6954,0.6937,0.6961,0.6861,0.6899,0.6891,0.6889,0.6865,0.6851,0.6839,0.6998,0.6999,0.6999,0,0,0.6823,0.6835,0.6804,0.6812,0.6826,0.6848,0.6841,0.6863,0.6873,0.6846,0.6889,0.6875,0.6857,0.6862,0.6862,0.6774,0.6805,0.6771,0.6712,0.6686,0.6674,0.6664,0.6631,0.6619,0.6764,0.6764,0.6764,0,0.6763,0.6743,0.6783,0.6762,0.6761,0.6816,0.6784,0.6789,0.6798,0.6796,0.6824,0.6803,0.6813,0.6773,0.6752,0.6751,0.6742,0.6767,0.6673,0.6664,0.6655,0.6624,0.6611,0.676,0.676,0.6761,0.6761,0,0.6669,0.6654,0.6627,0.6637,0.6634,0.6607,0.6642,0.6634,0.6661,0.668,0.6651,0.6666,0.6661,0.6655,0.668,0.6619,0.6633,0.6666,0.6713,0.6636,0.6607,0.6596,0.6753,0.6755,0.6756,0.6757,0,0,0.6524,0.6559,0.6548,0.6553,0.6574,0.6562,0.6538,0.6536,0.6528,0.6533,0.6512,0.6497,0.6529,0.6529,0.6555,0.6532,0.646,0.6569,0.6569,0.6546,0.6392,0.6365,0.635,0.6483,0.6481,0.6479,0.6391,0,0.6436,0.6397,0.6434,0.6387,0.6374,0.6427,0.6406,0.6415,0.6433,0.6423,0.6443,0.6431,0.6474,0.6474,0.6455,0.6473,0.643,0.6481,0.6462,0.646,0.6454,0.6336,0.6307,0.6222,0.638,0.6378,0.6377,0,0.6326,0.6329,0.6281,0.6305,0.6301,0.6281,0.6283,0.6274,0.6285,0.63,0.6301,0.6334,0.6311,0.636,0.6327,0.6361,0.6356,0.6364,0.6362,0.6359,0.6411,0.6327,0.6196,0.6182,0.636,0.6361,0.6363,0,0.6223,0.6215,0.6185,0.6188,0.6216,0.6201,0.6211,0.6226,0.6223,0.6224,0.6222,0.622,0.6218,0.6215,0.6247,0.628,0.621,0.6261,0.6219,0.6218,0.6199,0.6199,0.6063,0.6201,0.6201,0.6201,0.6201,0,0.6118,0.6086,0.6139,0.612,0.6087,0.613,0.6094,0.611,0.6123,0.6108,0.6154,0.6138,0.6182,0.6171,0.6195,0.6164,0.6163,0.6173,0.6179,0.6167,0.6165,0.6162,0.6167,0.6198,0.6198,0.6199,0.62,0,0.5995,0.603,0.6001,0.6031,0.6038,0.6011,0.6036,0.6019,0.6042,0.6022,0.602,0.6054,0.6043,0.6076,0.6069,0.6086,0.604,0.6057,0.6036,0.604,0.5995,0.5998,0.5849,0.5831,0.5983,0.5981,0.598,0,0.5925,0.5902,0.593,0.5924,0.5933,0.5922,0.592,0.5962,0.5957,0.597,0.5952,0.5945,0.5942,0.5922,0.5945,0.5941,0.5956,0.5905,0.5956,0.5944,0.5953,0.5952,0.595,0.5893,0.5891,0.589,0.5888,0,0.5795,0.5814,0.5809,0.5811,0.5808,0.5811,0.5817,0.5809,0.5854,0.5846,0.5837,0.5835,0.583,0.5822,0.5823,0.5832,0.5866,0.5873,0.5863,0.5848,0.5836,0.584,0.6004,0.5875,0.5876,0.5877,0.5878,0.5879,0.5694,0.5676,0.5694,0.5688,0.5697,0.5702,0.5688,0.571,0.5704,0.5704,0.573,0.5714,0.5728,0.5733,0.5739,0.5727,0.5751,0.5736,0.5732,0.5727,0.5718,0.5841,0.5728,0.5728,0.5729,0.5729,0.5729,0,0.5565,0.5579,0.5574,0.5582,0.5577,0.5614,0.5623,0.5615,0.5602,0.5612,0.5609,0.5598,0.5591,0.5615,0.5612,0.5598,0.5613,0.5595,0.5595,0.5596,0.5699,0.5707,0.5582,0.5582,0.5582,0.5582,0.5582,0.5582,0.5497,0.5468,0.5489,0.5466,0.548,0.5467,0.5469,0.5474,0.5482,0.5468,0.5464,0.5481,0.5496,0.5495,0.549,0.5497,0.5492,0.5468,0.548,0.5575,0.5589,0.5602,0.561,0.5467,0.5467,0.5378,0.5378,0.5377]}]]